Location: Lake of the Woods (North-East)
(49.6672°N, 94.8656°W)
Time: 17:16:23
(UTC-05:00)

Daily predictions for brighter satellites

Satellite Brightness Start Highest point End
(mag) Time Altitude Azimuth Time Altitude Azimuth Time Altitude Azimuth
NOSS 3-1 (A) 4.1 19:30:32 10° NW 19:37:58 88° NE 19:46:19 10° SE
Cosmos 332 Rocket 4.2 19:33:57 10° SSW 19:38:49 71° WNW 19:43:42 10° NNE
Cosmos 1953 Rocket 3.6 19:34:32 10° N 19:38:54 86° W 19:43:13 10° S
Cosmos 1606 Rocket 3.5 19:35:44 10° S 19:40:04 78° E 19:44:24 10° NNE
Cosmos 841 Rocket 3.8 19:36:28 10° S 19:41:20 44° ESE 19:46:13 10° NE
Cosmos 1937 Rocket 4.3 19:37:07 10° NNW 19:42:20 57° WSW 19:47:29 10° S
Cosmos 371 Rocket 3.6 19:37:46 10° SSW 19:42:39 77° WNW 19:47:35 10° NNE
Cosmos 468 Rocket 4.2 19:38:03 10° SSW 19:43:17 85° WNW 19:48:38 10° NNE
Resurs 01 Rocket 2.8 19:40:10 10° ESE 19:43:42 24° ENE 19:47:14 10° N
NOSS 3-1 (C) 4.4 19:38:34 10° NW 19:45:58 71° SW 19:54:15 10° SSE
Cosmos 2058 Rocket 3.1 19:43:56 10° S 19:48:12 58° E 19:52:32 10° NNE
Cosmos 389 Rocket 2.7 19:45:14 10° SSW 19:48:42 72° WNW 19:52:11 10° N
FengYun 1-2 T 4.3 19:44:53 10° SSE 19:50:23 62° ENE 19:55:52 10° N
Cosmos 1271 Rocket 3.4 19:47:32 10° SSW 19:51:18 60° WNW 19:55:08 10° N
SL-27 R/B 4.4 19:51:04 10° ESE 19:52:31 12° E 19:53:57 10° ENE
Cosmos 1943 4.2 19:48:32 10° SW 19:54:04 51° NW 19:59:40 10° NNE
Cosmos 540 Rocket 4.2 19:49:55 10° SSE 19:54:20 30° E 19:58:46 10° NE
Elektron 1 4.0 19:50:30 10° NW 19:54:37 67° NE 19:57:29 10° ESE
Cosmos 2184 Rocket 4.2 19:49:57 10° SSE 19:56:00 50° E 20:02:08 10° NNE
Meteor 2-13 Rocket 4.4 19:52:30 10° S 19:58:33 74° E 20:04:37 10° NNE
Cosmos 1763 Rocket 3.4 19:54:27 10° SSW 19:59:34 80° ESE 20:04:48 10° NNE
HJ-1C 3.6 19:57:44 10° SSE 20:01:00 51° ENE 20:04:18 10° N
USA 186 3.0 20:02:05 14° ENE 20:02:20 14° ENE 20:03:39 10° NE
SL-08 ROCKET BODY 4.3 19:57:45 10° S 20:03:38 79° E 20:09:40 10° NNE
USA 267 3.8 20:02:28 10° ENE 20:08:51 57° NNW 20:15:13 10° W
Cosmos 1805 4.0 20:07:40 10° SSE 20:11:04 29° E 20:14:29 10° NNE
Cosmos 2327 Rocket 4.4 20:08:45 10° S 20:14:45 61° E 20:20:44 10° NNE
Cosmos 1939 Rocket 4.1 20:13:42 16° ESE 20:15:33 23° ENE 20:18:42 10° NNE
Cosmos 2278 4.4 20:10:43 10° NNW 20:16:00 38° NE 20:20:04 16° ESE
CZ-2D R/B 3.4 20:14:41 10° SSE 20:18:24 52° ENE 20:22:09 10° N
Cosmos 304 Rocket 3.8 20:18:54 10° SSW 20:23:41 89° WNW 20:28:32 10° NNE
COSMO-SKYMED 1 4.3 20:19:43 10° N 20:23:43 36° WNW 20:27:42 10° SW
Cosmos 2322 Rocket 4.3 20:24:05 10° N 20:26:21 12° NNE 20:28:35 10° NE
Cosmos 1470 4.3 20:31:43 19° ENE 20:31:43 19° ENE 20:33:50 10° NE
ISS -1.8 20:28:52 10° S 20:30:17 15° SSE 20:30:17 15° SSE
Thor Agena Rocket 3.8 20:25:43 10° NNE 20:31:00 77° WNW 20:36:11 10° SSW
BREEZE-M DEB (TANK) 1.2 20:28:39 10° W 20:31:00 57° SSW 20:31:29 40° SE
Meteor 1-24 Rocket 4.2 20:25:13 10° NNW 20:31:11 70° W 20:36:56 10° S
Cosmos 1656 4.2 20:27:11 10° NNW 20:32:34 41° NE 20:35:48 22° ESE
Spot 2 Rocket 3.5 20:28:15 10° SSE 20:33:12 59° ENE 20:38:10 10° N
Cosmos 2084 3.7 20:31:28 10° SW 20:35:25 60° NW 20:39:14 10° NE
Cosmos 1697 Rocket 3.6 20:30:38 10° NNW 20:35:45 33° NE 20:38:32 22° E
Cosmos 1980 Rocket 3.5 20:32:52 10° NNW 20:37:26 24° NE 20:39:52 18° ENE
Cosmos 836 Rocket 4.4 20:33:28 10° SSW 20:38:43 73° ESE 20:43:58 10° NNE
Cosmos 1076 Rocket 4.1 20:37:27 10° N 20:41:32 38° ENE 20:43:06 28° ESE
SJ 16-02 1.3 20:37:59 10° NNW 20:42:24 85° WSW 20:46:14 13° SSE
ALOS 4.3 20:38:26 10° SSW 20:42:30 29° W 20:46:35 10° NNW
SJ-6B 4.0 20:41:39 10° S 20:45:28 44° W 20:49:14 10° NNW
H-2A R/B 4.4 20:46:48 10° SSW 20:50:13 34° W 20:53:43 10° NNW
Cosmos 1953 2.5 20:47:22 15° SSE 20:50:27 47° E 20:54:23 10° NNE
ERS-1 Rocket 4.0 20:52:11 25° ENE 20:53:04 26° ENE 20:57:11 10° N
Cosmos 1818 4.5 20:48:20 10° NNW 20:53:21 35° NE 20:55:33 26° E
Resurs 1-3 3.6 20:49:23 12° SSE 20:53:28 87° W 20:57:53 10° NNW
Cosmos 1356 4.0 20:50:53 10° NNW 20:54:20 58° W 20:57:26 12° S
Cosmos 1125 Rocket 4.4 20:50:19 10° NNW 20:55:25 49° WSW 21:00:30 10° S
YAOGAN 6 3.0 20:57:08 41° ENE 20:57:14 41° ENE 21:00:41 10° N
SJ-11-01 4.3 20:57:06 30° SE 20:59:17 59° ENE 21:03:58 10° N
SL-14 R/B 4.2 20:57:01 10° N 21:00:06 30° ENE 21:00:06 30° ENE
Cosmos 2154 Rocket 3.9 20:55:07 10° S 21:01:20 81° E 21:07:39 10° N
Cosmos 1544 4.0 20:58:57 10° SSW 21:02:27 48° WNW 21:06:00 10° N
SL-16 R/B 3.9 21:01:34 10° N 21:05:24 18° NE 21:07:07 16° ENE
Envisat 3.0 21:01:14 14° SSE 21:05:41 83° WSW 21:10:49 10° NNW
ARGOS 4.1 21:05:24 28° ENE 21:06:10 29° ENE 21:10:47 10° N
Cosmos 1626 4.4 21:08:04 10° NNE 21:08:54 13° NE 21:08:54 13° NE
Terra 4.1 21:12:50 10° NE 21:12:50 10° NE 21:13:06 10° NE
Cosmos 1408 Rocket 3.9 21:08:57 10° N 21:13:05 45° ENE 21:13:05 45° ENE
NOAA 11 4.5 21:12:01 39° ESE 21:13:22 47° ENE 21:18:33 10° N
Cosmos 1900 4.3 21:09:06 10° SSW 21:14:11 70° ESE 21:19:21 10° NE
Cosmos 2341 Rocket 3.9 21:08:55 10° S 21:15:05 75° E 21:21:20 10° NNE
Cosmos 1674 3.0 21:11:27 10° NNW 21:15:10 61° W 21:16:47 30° SSW
FALCON 9 R/B 4.0 21:13:23 10° SSW 21:15:44 16° S 21:15:44 16° S
GP-B 3.6 21:13:11 10° N 21:17:34 59° W 21:21:56 10° SSW
Cosmos 1812 Rocket 4.2 21:13:32 10° SSW 21:17:56 56° WNW 21:22:23 10° N
COSMOS 2406 3.8 21:12:58 10° SW 21:18:37 60° WNW 21:24:21 10° NNE
Resurs 01 Rocket 2.6 21:15:42 10° S 21:19:56 46° W 21:24:13 10° NNW
ATLAS 2AS CENTAUR R/B 3.0 21:11:56 10° NW 21:20:05 84° NE 21:23:48 35° SE
Cosmos 2369 3.8 21:20:33 10° NNW 21:26:13 76° WSW 21:28:37 36° SSE
Meteor 2-21 4.4 21:22:45 21° S 21:26:59 65° E 21:33:03 10° NNE
SL-27 R/B 2.9 21:23:36 10° SSW 21:27:12 62° WNW 21:30:51 10° NNE
H-2A R/B 3.1 21:28:13 28° NE 21:28:13 28° NE 21:32:05 10° N
NOSS 3-4 (A) 4.4 21:25:29 10° NW 21:31:55 42° NNE 21:34:23 32° ENE
NOSS 3-4 (C) 4.4 21:25:35 10° NW 21:32:00 42° NNE 21:34:29 32° ENE
Spot 1 4.4 21:32:42 49° NE 21:32:42 49° NE 21:36:08 10° N
USA 186 4.2 21:33:40 17° WNW 21:33:40 17° WNW 21:34:47 10° NW
Cosmos 1833 Rocket 4.5 21:37:41 17° NE 21:37:41 17° NE 21:39:01 10° NE
Cosmos 2366 rocket 4.1 21:34:13 48° ESE 21:35:14 53° E 21:41:19 10° NNE
Cosmos 1758 4.2 21:31:33 10° SSW 21:35:27 48° WNW 21:39:20 10° N
Helios 1A 3.0 21:37:03 72° NNE 21:37:03 72° NNE 21:40:55 10° NNW
Meteor 1-11 4.3 21:31:08 10° N 21:36:51 55° ENE 21:37:25 53° E
Meteor 2-15 Rocket 4.3 21:30:51 10° N 21:36:59 82° E 21:39:04 44° SSE
Cosmos 1733 3.7 21:40:47 57° NNW 21:40:47 57° NNW 21:44:02 10° N
Cosmos 2218 Rocket 3.9 21:38:40 47° SSE 21:40:18 63° E 21:46:25 10° NNE
Cosmos 1766 Rocket 3.5 21:37:45 10° N 21:42:02 85° NW 21:42:02 85° NW
Cosmos 2285 Rocket 3.9 21:36:33 10° SSW 21:42:57 73° ESE 21:49:24 10° NNE
Cosmos 2084 Rocket 3.9 21:42:25 10° NW 21:45:24 52° NW 21:45:24 52° NW
SL-08 R/B 4.4 21:48:27 59° SE 21:49:11 63° E 21:55:21 10° NNE
SPOT 5 3.9 21:51:28 30° NNE 21:51:28 30° NNE 21:54:13 10° N
Cosmos 1939 Rocket 4.0 21:49:37 35° WSW 21:50:19 38° W 21:54:02 10° NNW
Cosmos 2360 4.3 21:44:48 10° NNW 21:50:28 58° NE 21:50:40 58° ENE
USA 267 3.9 21:48:02 27° ENE 21:51:18 47° N 21:57:31 10° WNW
Cosmos 1809 Rocket 4.4 21:47:40 15° SSW 21:52:50 81° W 21:58:59 10° N
Cosmos 1538 Rocket 4.4 21:56:53 51° NE 21:56:53 51° NE 22:00:48 10° NNE
Cosmos 2082 Rocket 3.6 22:01:05 25° NE 22:01:05 25° NE 22:03:26 10° NE
MetOp-B 4.0 21:59:14 78° ENE 21:59:14 78° ENE 22:04:33 10° NNW
Cosmos 1727 Rocket 3.9 21:55:42 10° N 22:02:02 85° E 22:02:58 67° SSE
SL-8 Rocket 4.0 21:59:29 30° SSW 22:02:42 79° W 22:08:54 10° N
Meteor 2-16 Rocket 4.3 22:02:48 73° SSE 22:03:22 81° E 22:09:29 10° NNE
BREEZE-M DEB (TANK) 3.9 21:59:15 10° WSW 22:04:19 36° SW 22:04:19 36° SW
Cosmos 1470 4.1 22:07:03 39° WNW 22:07:03 39° WNW 22:10:33 10° N
Cosmos 2322 Rocket 3.1 22:06:53 10° NNW 22:11:28 36° NNE 22:11:28 36° NNE
Meteor 2-14 Rocket 4.5 22:11:37 48° SSW 22:13:25 77° W 22:19:35 10° N
Cosmos 1697 Rocket 3.1 22:14:29 10° NW 22:20:00 53° WSW 22:20:16 53° WSW
Cosmos 2360 Rocket 3.8 22:15:32 10° NNW 22:19:35 23° NE 22:19:35 23° NE
SJ 16-02 4.4 22:19:35 10° W 22:20:12 10° W 22:20:48 10° W
Cosmos 1980 Rocket 2.3 22:16:26 10° NNW 22:21:37 74° WNW 22:21:37 74° WNW
ERS-1 Rocket 3.7 22:32:12 49° WNW 22:32:12 49° WNW 22:36:30 10° NNW
SPOT 1/Viking Rocket 4.4 22:35:20 45° N 22:35:20 45° N 22:38:54 10° NNW
Cosmos 1818 4.3 22:31:52 10° NW 22:36:12 50° WNW 22:36:12 50° WNW
BREEZE-M DEB (TANK) 3.8 22:28:26 10° WNW 22:40:49 67° WSW 22:40:49 67° WSW
ARGOS 3.9 22:46:56 48° WNW 22:46:56 48° WNW 22:51:29 10° NNW
Cosmos 2333 Rocket 4.4 22:45:44 10° N 22:48:50 15° NNE 22:49:13 15° NNE
Terra 3.7 22:51:43 25° N 22:51:43 25° N 22:53:46 10° N
SL-16 R/B 3.1 22:44:58 10° NNW 22:48:58 45° N 22:48:58 45° N
H-2A R/B 3.5 23:08:51 32° NW 23:08:51 32° NW 23:11:55 10° NNW
ATLAS 2AS CENTAUR R/B 4.2 23:03:47 10° NW 23:10:20 29° WSW 23:11:15 28° WSW
Cosmos 1833 Rocket 4.1 23:19:19 34° NNW 23:19:19 34° NNW 23:23:04 10° NNE
Cosmos 2237 Rocket 4.5 23:17:07 10° N 23:20:15 16° NNE 23:20:15 16° NNE
NOSS 3-4 (A) 4.2 23:16:25 10° NW 23:21:49 56° WNW 23:21:49 56° WNW
NOSS 3-4 (C) 4.2 23:16:31 10° NW 23:21:55 56° WNW 23:21:55 56° WNW
Cosmos 2219 Rocket 4.2 23:20:32 10° N 23:23:26 20° NNE 23:23:26 20° NNE
USA 267 3.8 23:35:23 53° NW 23:35:23 53° NW 23:40:22 10° WNW
Cosmos 2082 Rocket 3.9 23:42:52 30° NW 23:42:52 30° NW 23:47:19 10° NNE
